Location: Esp�s Alto
(42.4476°N, 0.5876°E)
Time: 20:51:26
(UTC+00:00)

RESURS DK-1 - Pass Details

Date: 22 October 2019
Orbit: 558 x 561 km, 69.9° (Epoch: 18 November)

Event Time Altitude Azimuth Distance (km) Brightness Sun altitude
Exits shadow 03:44:15 33° 102° (ESE) 943 3.9 -29.0°
Drops below altitude 10° 03:47:48 10° 44° (NE) 1,849 5.7 -28.4°
Sets 03:50:09 0° 35° (NE) 2,749 6.5 -27.9°
